Tracking 25620 objects as of 18-May-2022
HD Live streaming from Space Station
objects crossing your sky now

ARIANE 5 R/B

Track ARIANE 5 R/B now!


NORAD ID: 35944
Int'l Code: 2009-054C
Perigee: 222.4 km
Apogee: 31,694.3 km
Inclination: 3.3 °
Period: 553.4 minutes
Semi major axis: 22329 km
RCS: 22.8192 m2 (large)
Launch date: September 30, 2009
Source: France (FR)
Launch site: FRENCH GUIANA (FRGUI)

Note: This is a ROCKET BODY
aabbcc
Your satellite tracking list
Your tracking list is empty




NASA's NSSDC Master Catalog

Two Line Element Set (TLE):
1 35944U 09054C   22137.55083135  .00013540  00000-0  14172-2 0  9998
2 35944   3.2892 225.4238 7047223  30.1671 356.1281  2.60188954112845
Source of the keplerian elements: AFSPC